Tracking 35274 objects as of 12-Sep-2026
HD Live streaming from Space Station
objects crossing your sky now

OV3-3


10-day predictions
OV3-3 is classified as:


NORAD ID: 2389
Int'l Code: 1966-070A
Launch date: August 4, 1966
Source: United States (US)
Launch site: AIR FORCE WESTERN TEST RANGE (AFWTR)
Your satellite tracking list
Your tracking list is empty




NASA's NSSDC Master Catalog

Two Line Element Set (TLE):
1  2389U 66070A   26254.77925632  .00007749  00000-0  34817-3 0  9994
2  2389  81.3212 254.4830 1002576 292.6346  57.1828 13.47264635610627
Source of the keplerian elements: AFSPC